User: anonymous   Login
Location: Unspecified
(0.0000°N, 0.0000°E)
Time: 13:14:55
(UTC+00:00)
Language:

USA 236 - Orbit

View from above orbital plane
View from above orbital plane
View from above satellite
View from above satellite

Ground track
Ground track

The orbit data is extracted from the following two-line orbital elements,

1 38466U 12033A   20265.39721692 0.00000000  00000-0  00000-0 0    03
2 38466   2.6811 119.7891 0007570 182.9680 177.0407  1.00270000    02
Epoch (UTC): 21 September 2020 09:31:59
Eccentricity: 0.0007570
inclination: 2.6811°
perigee height: 35755 km
apogee height: 35818 km
right ascension of ascending node: 119.7891°
argument of perigee: 182.9680°
revolutions per day: 1.00270000
mean anomaly at epoch: 177.0407°
orbit number at epoch: 0

The dashed part of the orbit path shows where the satellite is in the earth's shadow,  

DLR